DW4078 Weather Reports


time (UTC)temp
C
wind
direction
speed
KPH
gust
KPH
rain 1hr
cm
rain 24hr
cm
rain mn
cm
humidity
%
barometer
mb
20260503233602 14 209 4.8 17.7 0.00 0.00 0.00 43 1012.2
20260503233402 14 211 6.4 17.7 0.00 0.00 0.00 43 1012.3
20260503233302 14 213 6.4 17.7 0.00 0.00 0.00 43 1012.3
20260503233102 14 212 6.4 12.9 0.00 0.00 0.00 42 1012.4
20260503233023 14 214 4.8 12.9 0.00 0.00 0.00 42 1012.3
20260503232802 14 212 4.8 12.9 0.00 0.00 0.00 42 1012.3
20260503232323 14 205 4.8 14.5 0.00 0.00 0.00 42 1012.2
20260503231202 14 212 9.7 25.7 0.00 0.00 0.00 42 1012.4
20260503231002 14 212 9.7 25.7 0.00 0.00 0.00 41 1012.3
20260503230902 14 210 8.0 25.7 0.00 0.00 0.00 41 1012.4
20260503230623 15 214 6.4 25.7 0.00 0.00 0.00 41 1012.4
20260503230323 15 198 6.4 16.1 0.00 0.00 0.00 42 1012.4
20260503230202 14 197 6.4 16.1 0.00 0.00 0.00 42 1012.4
20260503225902 14 198 6.4 16.1 0.00 0.00 0.00 42 1012.5
20260503225602 15 200 6.4 16.1 0.00 0.00 0.00 42 1012.3
20260503225402 14 213 6.4 16.1 0.00 0.00 0.00 41 1012.7
20260503225123 14 218 6.4 14.5 0.00 0.00 0.00 42 1012.4
20260503225002 14 215 6.4 14.5 0.00 0.00 0.00 42 1012.5
20260503224902 14 213 6.4 14.5 0.00 0.00 0.00 42 1012.4
20260503224802 14 211 6.4 14.5 0.00 0.00 0.00 41 1012.4
20260503224302 15 206 6.4 20.9 0.00 0.00 0.00 42 1012.4
20260503224202 15 214 6.4 20.9 0.00 0.00 0.00 42 1012.4
20260503223902 15 234 8.0 24.1 0.00 0.00 0.00 42 1012.5
20260503223702 15 228 8.0 24.1 0.00 0.00 0.00 42 1012.6
20260503223602 15 231 8.0 24.1 0.00 0.00 0.00 42 1012.7
20260503223102 15 217 6.4 24.1 0.00 0.00 0.00 41 1012.6
20260503223002 15 213 6.4 22.5 0.00 0.00 0.00 40 1012.7
20260503222602 15 205 8.0 20.9 0.00 0.00 0.00 41 1012.7
20260503222502 15 207 9.7 20.9 0.00 0.00 0.00 40 1012.5
20260503222402 15 212 9.7 20.9 0.00 0.00 0.00 39 1012.5
20260503222102 15 226 11.3 22.5 0.00 0.00 0.00 40 1012.5
20260503221802 15 225 9.7 22.5 0.00 0.00 0.00 40 1012.8
20260503221702 15 227 9.7 22.5 0.00 0.00 0.00 39 1012.8
20260503221623 15 231 11.3 35.4 0.00 0.00 0.00 41 1012.7
20260503221402 15 229 12.9 35.4 0.00 0.00 0.00 40 1012.8
20260503221302 15 227 12.9 35.4 0.00 0.00 0.00 40 1012.7
20260503221102 15 221 11.3 35.4 0.00 0.00 0.00 39 1012.7
20260503221002 15 223 11.3 35.4 0.00 0.00 0.00 40 1012.7
20260503220903 15 231 11.3 35.4 0.00 0.00 0.00 40 1012.9
20260503220702 15 232 12.9 35.4 0.00 0.00 0.00 40 1012.9
20260503220502 15 235 11.3 29.0 0.00 0.00 0.00 40 1012.8
20260503220402 15 237 11.3 29.0 0.00 0.00 0.00 41 1012.6
20260503220323 15 233 11.3 29.0 0.00 0.00 0.00 40 1012.6
20260503220202 15 230 11.3 25.7 0.00 0.00 0.00 41 1012.7
20260503215902 15 223 9.7 25.7 0.00 0.00 0.00 40 1012.8
20260503215602 15 215 8.0 22.5 0.00 0.00 0.00 40 1012.7
20260503215502 15 216 8.0 22.5 0.00 0.00 0.00 41 1012.8
20260503215123 15 216 6.4 22.5 0.00 0.00 0.00 41 1012.8
20260503215023 15 221 6.4 22.5 0.00 0.00 0.00 41 1012.5
20260503214902 15 211 6.4 22.5 0.00 0.00 0.00 41 1012.6
20260503214823 15 211 6.4 22.5 0.00 0.00 0.00 42 1012.7
20260503214702 15 222 6.4 22.5 0.00 0.00 0.00 41 1012.9
20260503214602 15 215 6.4 22.5 0.00 0.00 0.00 42 1012.7
20260503214502 15 210 6.4 22.5 0.00 0.00 0.00 41 1012.5
20260503214402 15 217 6.4 22.5 0.00 0.00 0.00 41 1012.7
20260503214023 15 227 8.0 24.1 0.00 0.00 0.00 41 1012.6
20260503213802 15 217 11.3 29.0 0.00 0.00 0.00 41 1012.6
20260503213723 15 222 11.3 29.0 0.00 0.00 0.00 40 1012.7
20260503213302 15 217 11.3 29.0 0.00 0.00 0.00 40 1012.6
20260503213123 15 213 11.3 29.0 0.00 0.00 0.00 41 1012.6
20260503213002 15 218 11.3 27.4 0.00 0.00 0.00 40 1012.8
20260503212702 15 221 9.7 25.7 0.00 0.00 0.00 40 1012.8
20260503212602 15 222 9.7 25.7 0.00 0.00 0.00 40 1012.6
20260503212402 15 227 9.7 22.5 0.00 0.00 0.00 40 1012.6
20260503212102 15 229 9.7 22.5 0.00 0.00 0.00 40 1012.5
20260503212002 15 230 11.3 22.5 0.00 0.00 0.00 39 1012.6
20260503211902 15 235 9.7 22.5 0.00 0.00 0.00 39 1012.7
20260503211802 15 232 9.7 22.5 0.00 0.00 0.00 40 1012.6
20260503211402 15 233 9.7 22.5 0.00 0.00 0.00 39 1012.7
20260503211202 15 237 9.7 22.5 0.00 0.00 0.00 41 1012.6
20260503211102 15 240 9.7 22.5 0.00 0.00 0.00 39 1012.6
20260503210902 15 234 8.0 20.9 0.00 0.00 0.00 39 1012.6
20260503210702 15 238 8.0 20.9 0.00 0.00 0.00 40 1012.7
20260503210323 16 226 6.4 16.1 0.00 0.00 0.00 39 1012.5
20260503210202 15 224 6.4 16.1 0.00 0.00 0.00 38 1012.3
20260503210002 15 213 6.4 16.1 0.00 0.00 0.00 39 1012.7
20260503205902 15 221 6.4 16.1 0.00 0.00 0.00 39 1012.5
20260503205802 15 221 6.4 16.1 0.00 0.00 0.00 39 1012.5
20260503205602 15 210 6.4 16.1 0.00 0.00 0.00 38 1012.7
20260503205502 15 199 6.4 16.1 0.00 0.00 0.00 40 1012.5
20260503205423 15 210 6.4 16.1 0.00 0.00 0.00 39 1012.5
20260503205304 16 207 8.0 17.7 0.00 0.00 0.00 38 1012.5
20260503205202 16 188 8.0 20.9 0.00 0.00 0.00 39 1012.7
20260503205102 16 193 6.4 20.9 0.00 0.00 0.00 38 1012.7
20260503204902 16 199 8.0 20.9 0.00 0.00 0.00 39 1012.7
20260503204102 16 227 9.7 24.1 0.00 0.00 0.00 39 1012.6
20260503203923 16 223 9.7 24.1 0.00 0.00 0.00 39 1012.4
20260503203623 16 228 9.7 24.1 0.00 0.00 0.00 38 1012.7
20260503203402 16 232 9.7 24.1 0.00 0.00 0.00 38 1012.5
20260503203102 15 216 9.7 24.1 0.00 0.00 0.00 39 1012.7
20260503202902 15 220 11.3 24.1 0.00 0.00 0.00 39 1012.8
20260503202802 15 220 11.3 22.5 0.00 0.00 0.00 39 1012.8
20260503202702 15 217 9.7 22.5 0.00 0.00 0.00 39 1012.7
20260503202423 15 207 9.7 25.7 0.00 0.00 0.00 39 1012.7
20260503202123 15 216 9.7 25.7 0.00 0.00 0.00 40 1012.8
20260503201803 15 205 9.7 25.7 0.00 0.00 0.00 40 1012.9
20260503201602 15 203 8.0 25.7 0.00 0.00 0.00 39 1012.9
20260503200902 15 240 11.3 27.4 0.00 0.00 0.00 40 1013.1
20260503200824 15 243 11.3 27.4 0.00 0.00 0.00 40 1013.2
20260503200702 15 242 11.3 27.4 0.00 0.00 0.00 40 1013.1
20260503200602 15 238 11.3 27.4 0.00 0.00 0.00 40 1013.2
20260503200502 15 241 11.3 27.4 0.00 0.00 0.00 39 1013.1
20260503195802 15 196 11.3 27.4 0.00 0.00 0.00 40 1013.2
20260503195602 15 198 9.7 27.4 0.00 0.00 0.00 39 1013.2
20260503195304 15 197 9.7 24.1 0.00 0.00 0.00 40 1013.3
20260503195102 15 211 9.7 24.1 0.00 0.00 0.00 39 1013.2
20260503194902 15 226 9.7 24.1 0.00 0.00 0.00 39 1013.5
20260503194803 15 227 9.7 22.5 0.00 0.00 0.00 39 1013.3
20260503194402 15 226 8.0 22.5 0.00 0.00 0.00 40 1013.5
20260503194302 15 225 8.0 22.5 0.00 0.00 0.00 39 1013.5
20260503193903 15 211 8.0 22.5 0.00 0.00 0.00 39 1013.6
20260503193602 15 203 6.4 17.7 0.00 0.00 0.00 42 1013.6
20260503193523 15 203 6.4 17.7 0.00 0.00 0.00 41 1013.4
20260503193123 15 187 6.4 17.7 0.00 0.00 0.00 40 1013.6
20260503192702 15 225 8.0 27.4 0.00 0.00 0.00 39 1013.6
20260503192323 15 252 9.7 27.4 0.00 0.00 0.00 40 1013.7
20260503192202 15 251 11.3 27.4 0.00 0.00 0.00 39 1013.6
20260503192102 15 246 11.3 27.4 0.00 0.00 0.00 38 1013.9
20260503191902 14 239 11.3 27.4 0.00 0.00 0.00 40 1013.9
20260503191602 15 213 9.7 24.1 0.00 0.00 0.00 40 1013.9
20260503191502 15 207 8.0 22.5 0.00 0.00 0.00 38 1014.0
20260503191403 15 202 8.0 22.5 0.00 0.00 0.00 38 1014.1
20260503191323 15 198 8.0 22.5 0.00 0.00 0.00 38 1013.9
20260503191102 15 213 8.0 25.7 0.00 0.00 0.00 38 1013.9
20260503190902 15 222 8.0 25.7 0.00 0.00 0.00 39 1013.9
20260503190823 15 223 8.0 25.7 0.00 0.00 0.00 39 1013.9
20260503190703 15 234 8.0 25.7 0.00 0.00 0.00 37 1013.7
20260503190602 15 229 9.7 25.7 0.00 0.00 0.00 36 1013.8
20260503190502 15 226 9.7 25.7 0.00 0.00 0.00 38 1014.1
20260503190423 15 228 9.7 25.7 0.00 0.00 0.00 38 1013.8
20260503190302 15 231 9.7 25.7 0.00 0.00 0.00 37 1014.1
20260503185802 16 215 8.0 20.9 0.00 0.00 0.00 37 1014.0
20260503185603 15 215 8.0 20.9 0.00 0.00 0.00 38 1014.0
20260503185403 15 235 9.7 20.9 0.00 0.00 0.00 37 1014.1
20260503185102 15 253 11.3 27.4 0.00 0.00 0.00 39 1014.0
20260503185002 15 256 11.3 27.4 0.00 0.00 0.00 39 1013.9
20260503184802 15 263 11.3 27.4 0.00 0.00 0.00 40 1014.0
20260503184602 15 268 11.3 27.4 0.00 0.00 0.00 40 1014.0
20260503184302 15 265 9.7 25.7 0.00 0.00 0.00 38 1013.9
20260503184202 15 260 8.0 25.7 0.00 0.00 0.00 37 1014.2
20260503184102 15 254 8.0 20.9 0.00 0.00 0.00 38 1014.3
20260503184002 16 252 8.0 22.5 0.00 0.00 0.00 38 1014.2
20260503183603 15 242 9.7 37.0 0.00 0.00 0.00 39 1014.3
20260503183523 15 234 9.7 37.0 0.00 0.00 0.00 40 1014.3
20260503183403 14 231 11.3 37.0 0.00 0.00 0.00 40 1014.3
20260503183202 14 226 12.9 37.0 0.00 0.00 0.00 39 1014.4
20260503183102 15 223 12.9 37.0 0.00 0.00 0.00 39 1014.5
20260503182802 15 190 11.3 27.4 0.00 0.00 0.00 39 1014.2
20260503182602 15 197 9.7 27.4 0.00 0.00 0.00 40 1014.4
20260503182523 15 201 9.7 27.4 0.00 0.00 0.00 41 1014.3
20260503182402 15 201 9.7 27.4 0.00 0.00 0.00 41 1014.4
20260503182202 15 210 9.7 29.0 0.00 0.00 0.00 39 1014.5
20260503182102 15 214 9.7 29.0 0.00 0.00 0.00 39 1014.2
20260503181902 15 233 9.7 29.0 0.00 0.00 0.00 40 1014.4
20260503181603 15 231 11.3 29.0 0.00 0.00 0.00 39 1014.4
20260503181402 15 230 11.3 29.0 0.00 0.00 0.00 40 1014.5
20260503181202 15 234 11.3 24.1 0.00 0.00 0.00 43 1014.4
20260503180323 14 248 11.3 27.4 0.00 0.00 0.00 42 1014.6
20260503180202 14 241 11.3 27.4 0.00 0.00 0.00 41 1014.5
20260503180003 14 242 11.3 27.4 0.00 0.00 0.00 41 1014.8
20260503175502 15 230 9.7 22.5 0.00 0.00 0.00 42 1014.7
20260503175202 15 221 9.7 22.5 0.00 0.00 0.00 42 1014.7
20260503175102 15 222 11.3 24.1 0.00 0.00 0.00 41 1014.8
20260503174602 15 228 9.7 27.4 0.00 0.00 0.00 40 1014.6
20260503174402 15 229 11.3 27.4 0.00 0.00 0.00 42 1014.7
20260503174202 15 237 9.7 27.4 0.00 0.00 0.00 42 1014.9
20260503174102 15 237 9.7 27.4 0.00 0.00 0.00 41 1014.8
20260503173902 15 233 8.0 25.7 0.00 0.00 0.00 42 1015.0
20260503173202 15 248 8.0 24.1 0.00 0.00 0.00 42 1014.9
20260503172902 15 249 8.0 24.1 0.00 0.00 0.00 45 1015.0
20260503172802 14 242 8.0 24.1 0.00 0.00 0.00 44 1014.9
20260503172602 14 237 8.0 24.1 0.00 0.00 0.00 43 1015.1
20260503172402 14 231 8.0 20.9 0.00 0.00 0.00 42 1015.0
20260503172202 15 228 6.4 17.7 0.00 0.00 0.00 42 1014.9
20260503172102 15 224 6.4 22.5 0.00 0.00 0.00 43 1014.9
20260503172002 15 221 8.0 24.1 0.00 0.00 0.00 42 1014.9
20260503171802 15 225 9.7 24.1 0.00 0.00 0.00 42 1015.1
20260503171702 14 218 9.7 24.1 0.00 0.00 0.00 43 1015.1
20260503171602 14 219 9.7 24.1 0.00 0.00 0.00 43 1015.2
20260503171503 14 214 9.7 24.1 0.00 0.00 0.00 42 1014.9
20260503171302 14 214 9.7 24.1 0.00 0.00 0.00 41 1014.9
20260503171002 14 221 9.7 22.5 0.00 0.00 0.00 42 1015.1
20260503170603 14 243 9.7 24.1 0.00 0.00 0.00 43 1015.3
20260503170502 14 243 9.7 24.1 0.00 0.00 0.00 42 1015.2
20260503170402 14 246 9.7 24.1 0.00 0.00 0.00 42 1015.2
20260503170202 14 246 9.7 24.1 0.00 0.00 0.00 42 1015.2
20260503150902 12 211 6.4 20.9 0.00 0.00 0.00 42 1016.5
20260503140302 10 168 4.8 9.7 0.00 0.00 0.00 46 1016.6
20260503140202 10 169 4.8 9.7 0.00 0.00 0.00 47 1016.6
20260503131402 8 198 4.8 12.9 0.00 0.00 0.00 51 1016.8
20260503131023 8 205 4.8 16.1 0.00 0.00 0.00 49 1017.0
20260503130902 8 200 4.8 16.1 0.00 0.00 0.00 50 1016.6
20260503130624 8 201 4.8 16.1 0.00 0.00 0.00 50 1016.7
20260503110802 0 117 0.0 1.6 0.00 0.13 0.00 92 1016.5
20260503110602 0 116 0.0 1.6 0.00 0.15 0.00 93 1016.5
20260503110123 0 117 0.0 1.6 0.00 0.15 0.00 93 1016.3
20260503090503 1 130 1.6 3.2 0.00 0.33 0.00 84 1016.3
20260503090402 1 131 1.6 3.2 0.00 0.33 0.00 85 1016.2
20260503090302 1 131 1.6 3.2 0.00 0.33 0.00 85 1016.3
20260503081602 1 0 0.0 0.0 0.00 0.33 0.00 87 1016.3
20260503081503 1 0 0.0 0.0 0.00 0.33 0.00 87 1016.3
20260503081324 1 0 0.0 0.0 0.00 0.33 0.00 87 1016.3
20260503081203 1 0 0.0 0.0 0.00 0.33 0.00 87 1016.4
20260503081102 1 0 0.0 0.0 0.00 0.33 0.00 86 1016.1
20260503081003 1 0 0.0 0.0 0.00 0.33 0.00 87 1016.4
20260503080702 1 128 0.0 3.2 0.00 0.33 0.00 87 1016.5
20260503080302 1 128 0.0 3.2 0.00 0.33 0.00 87 1016.2
20260503072902 0 0 0.0 0.0 0.00 0.33 0.00 89 1016.1
20260503072803 0 0 0.0 0.0 0.00 0.33 0.00 89 1016.4
20260503072624 0 0 0.0 0.0 0.00 0.33 0.00 88 1016.2
20260503072403 0 0 0.0 0.0 0.00 0.33 0.00 89 1016.2
20260503072202 1 116 0.0 1.6 0.00 0.33 0.00 88 1016.2
20260503072102 1 116 0.0 1.6 0.00 0.33 0.00 88 1016.3
20260503071924 1 114 0.0 1.6 0.00 0.33 0.00 88 1016.3
20260503071803 1 114 0.0 1.6 0.00 0.33 0.00 88 1016.4
20260503071602 1 114 0.0 1.6 0.00 0.33 0.00 88 1016.2
20260503071402 1 114 0.0 1.6 0.00 0.33 0.00 88 1016.3
20260503071302 1 114 0.0 1.6 0.00 0.33 0.00 88 1016.3
20260503071102 1 114 0.0 1.6 0.00 0.33 0.00 88 1016.4
20260503070902 1 115 0.0 1.6 0.00 0.33 0.00 89 1016.3
20260503070702 1 115 0.0 1.6 0.00 0.33 0.00 88 1016.3
20260503070602 1 115 0.0 1.6 0.00 0.33 0.00 89 1016.3
20260503070502 1 113 0.0 1.6 0.00 0.33 0.00 89 1016.3
20260503070424 1 113 0.0 1.6 0.00 0.33 0.00 89 1016.4
20260503060324 0 0 0.0 0.0 0.00 0.33 0.00 91 1016.6
20260503055102 0 0 0.0 0.0 0.00 0.33 0.00 89 1016.5
20260503055002 0 0 0.0 0.0 0.00 0.33 0.00 89 1016.6
20260503054903 0 0 0.0 0.0 0.00 0.33 0.00 89 1016.7
20260503054803 1 0 0.0 0.0 0.00 0.33 0.00 89 1016.6
20260503054602 1 0 0.0 0.0 0.00 0.33 0.00 89 1016.5
20260503054103 1 0 0.0 0.0 0.00 0.36 0.00 88 1016.7
20260503054003 1 0 0.0 0.0 0.00 0.36 0.00 88 1016.6
20260503053902 1 0 0.0 0.0 0.00 0.36 0.00 88 1016.7
20260503053703 1 0 0.0 0.0 0.00 0.36 0.00 88 1016.7
20260503053603 1 0 0.0 0.0 0.00 0.36 0.00 88 1016.6
20260503053303 1 0 0.0 0.0 0.00 0.36 0.00 87 1016.6
20260503053203 1 0 0.0 0.0 0.00 0.36 0.00 87 1016.7
20260503053002 1 0 0.0 0.0 0.00 0.36 0.00 86 1016.7
20260503052423 1 0 0.0 0.0 0.00 0.36 0.00 85 1016.5
20260503052305 1 0 0.0 0.0 0.00 0.36 0.00 85 1016.5
20260503052002 1 0 0.0 0.0 0.00 0.36 0.00 85 1016.8
20260503051923 1 0 0.0 0.0 0.00 0.36 0.00 85 1016.7
20260503051602 1 0 0.0 0.0 0.00 0.36 0.00 85 1016.7
20260503050903 1 0 0.0 0.0 0.00 0.36 0.00 86 1016.7
20260503050703 1 0 0.0 0.0 0.00 0.36 0.00 85 1016.7
20260503050303 1 0 0.0 0.0 0.00 0.36 0.00 85 1016.7
20260503050003 1 0 0.0 0.0 0.00 0.38 0.00 85 1016.6
20260503045902 1 0 0.0 0.0 0.00 0.38 0.00 85 1016.6
20260503045703 1 0 0.0 0.0 0.00 0.38 0.00 85 1016.6
20260503045502 1 0 0.0 0.0 0.00 0.38 0.00 84 1016.7
20260503045403 1 0 0.0 0.0 0.00 0.38 0.00 84 1016.8
20260503044803 1 0 0.0 0.0 0.00 0.38 0.00 83 1016.7
20260503044624 1 0 0.0 0.0 0.00 0.38 0.00 83 1016.9
20260503044524 1 0 0.0 0.0 0.00 0.38 0.00 83 1016.8
20260503043703 2 0 0.0 0.0 0.00 0.38 0.00 83 1016.7
20260503043624 2 0 0.0 0.0 0.00 0.38 0.00 83 1016.7
20260503043303 2 0 0.0 0.0 0.00 0.38 0.00 82 1016.8
20260503043103 2 0 0.0 0.0 0.00 0.38 0.00 82 1016.7
20260503042802 2 0 0.0 0.0 0.00 0.38 0.00 81 1016.9
20260503042602 2 0 0.0 0.0 0.00 0.38 0.00 81 1016.7
20260503042502 2 0 0.0 0.0 0.00 0.38 0.00 81 1016.8
20260503042304 2 0 0.0 0.0 0.00 0.41 0.00 81 1016.7
20260503042102 2 0 0.0 0.0 0.00 0.41 0.00 81 1016.8
20260503042002 2 0 0.0 0.0 0.00 0.41 0.00 81 1016.9
20260503041702 2 0 0.0 0.0 0.00 0.41 0.00 81 1017.0
20260503041103 2 0 0.0 0.0 0.00 0.41 0.00 80 1016.8
20260503040903 2 0 0.0 0.0 0.00 0.41 0.00 80 1016.9
20260503040602 3 0 0.0 0.0 0.00 0.41 0.00 79 1016.9
20260503040003 3 0 0.0 0.0 0.00 0.41 0.00 78 1016.9
20260503035503 3 0 0.0 0.0 0.00 0.41 0.41 77 1016.9
20260503035102 3 0 0.0 0.0 0.00 0.41 0.41 77 1016.9
20260503035024 3 0 0.0 0.0 0.00 0.41 0.41 77 1016.9
20260503034623 3 0 0.0 0.0 0.00 0.41 0.41 78 1017.0
20260503034424 3 0 0.0 0.0 0.00 0.41 0.41 78 1016.9
20260503034203 3 0 0.0 0.0 0.00 0.41 0.41 78 1017.0
20260503034102 3 0 0.0 0.0 0.00 0.41 0.41 78 1016.9
20260503034002 3 0 0.0 0.0 0.00 0.41 0.41 78 1016.9
20260503033902 3 0 0.0 0.0 0.00 0.41 0.41 78 1017.1
20260503033802 3 0 0.0 0.0 0.00 0.41 0.41 78 1016.8
20260503033602 3 0 0.0 0.0 0.00 0.41 0.41 78 1016.8
20260503033302 3 0 0.0 0.0 0.00 0.41 0.41 78 1016.9
20260503033103 3 0 0.0 0.0 0.00 0.41 0.41 78 1017.0
20260503033003 3 0 0.0 0.0 0.00 0.41 0.41 78 1017.0
20260503032803 3 0 0.0 0.0 0.00 0.41 0.41 78 1017.0
20260503032502 3 124 0.0 1.6 0.00 0.41 0.41 78 1017.0
20260503032102 3 123 0.0 1.6 0.00 0.41 0.41 77 1017.1
20260503031902 3 123 0.0 1.6 0.00 0.41 0.41 77 1017.0
20260503031824 3 123 0.0 1.6 0.00 0.41 0.41 78 1016.9
20260503031624 3 123 0.0 1.6 0.00 0.41 0.41 76 1017.0
20260503031102 3 0 0.0 0.0 0.00 0.41 0.41 78 1017.1
20260503030902 3 0 0.0 0.0 0.00 0.41 0.41 79 1017.0
20260503030803 3 0 0.0 0.0 0.00 0.41 0.41 79 1017.1
20260503030623 3 0 0.0 0.0 0.00 0.41 0.41 79 1017.2
20260503030203 3 0 0.0 0.0 0.00 0.41 0.41 79 1017.1
20260503030003 3 0 0.0 0.0 0.00 0.41 0.41 79 1017.1
20260503025902 3 0 0.0 0.0 0.00 0.41 0.41 78 1017.1
20260503025603 3 0 0.0 0.0 0.00 0.41 0.41 78 1017.2
20260503025503 3 0 0.0 0.0 0.00 0.41 0.41 78 1017.1
20260503025202 3 0 0.0 0.0 0.00 0.41 0.41 77 1017.0
20260503025102 3 0 0.0 0.0 0.00 0.41 0.41 77 1016.9
20260503023924 3 0 0.0 0.0 0.00 0.41 0.41 79 1017.3
20260503023703 3 116 0.0 1.6 0.00 0.41 0.41 79 1017.3
20260503023624 3 116 0.0 1.6 0.00 0.41 0.41 79 1017.3
20260503023402 3 116 0.0 1.6 0.00 0.41 0.41 78 1017.3
20260503023103 3 116 0.0 1.6 0.00 0.41 0.41 77 1017.2
20260503022903 3 116 0.0 1.6 0.00 0.41 0.41 77 1017.4
20260503022603 3 117 0.0 1.6 0.00 0.41 0.41 79 1017.3
20260503022502 3 117 0.0 1.6 0.00 0.41 0.41 79 1017.3
20260503022124 3 117 0.0 1.6 0.00 0.41 0.41 79 1017.2
20260503021902 3 120 0.0 1.6 0.00 0.41 0.41 79 1017.3
20260503021702 3 112 0.0 1.6 0.00 0.41 0.41 79 1017.4
20260503021602 3 115 0.0 1.6 0.00 0.41 0.41 78 1017.2
20260503021503 3 116 0.0 1.6 0.00 0.41 0.41 78 1017.4
20260503021424 3 117 0.0 1.6 0.00 0.41 0.41 78 1017.2
20260503021003 3 120 0.0 1.6 0.00 0.41 0.41 78 1017.3
20260503020303 3 124 0.0 1.6 0.00 0.41 0.41 77 1017.4
20260503020202 3 123 0.0 1.6 0.00 0.41 0.41 77 1017.3
20260503015603 3 123 0.0 1.6 0.00 0.41 0.41 77 1017.3
20260503015203 3 119 0.0 1.6 0.00 0.41 0.41 77 1017.4
20260503015103 3 119 0.0 1.6 0.00 0.41 0.41 78 1017.4
20260503014903 3 0 0.0 0.0 0.00 0.41 0.41 79 1017.4
20260503014424 3 0 0.0 0.0 0.00 0.41 0.41 79 1017.1
20260503014103 3 0 0.0 0.0 0.00 0.41 0.41 78 1017.3
20260503013902 3 0 0.0 0.0 0.00 0.41 0.41 78 1017.3
20260503013703 3 0 0.0 0.0 0.00 0.41 0.41 78 1017.2
20260503013402 4 0 0.0 0.0 0.00 0.41 0.41 78 1017.3
20260503013303 3 0 0.0 0.0 0.00 0.41 0.41 78 1017.2
20260503013103 4 0 0.0 0.0 0.00 0.41 0.41 78 1017.3
20260503013003 4 0 0.0 0.0 0.00 0.41 0.41 78 1017.2
20260503012803 4 0 0.0 0.0 0.00 0.41 0.41 78 1017.3
20260503012703 4 0 0.0 0.0 0.00 0.41 0.41 78 1017.3
20260503012603 4 0 0.0 0.0 0.00 0.41 0.41 77 1017.2
20260503011902 4 0 0.0 0.0 0.00 0.41 0.41 76 1017.0
20260503011802 4 0 0.0 0.0 0.00 0.41 0.41 76 1017.2
20260503011623 4 0 0.0 0.0 0.00 0.41 0.41 76 1017.2
20260503011403 4 0 0.0 0.0 0.00 0.41 0.41 76 1017.3
20260503011003 4 0 0.0 0.0 0.00 0.41 0.41 75 1017.2
20260503010703 4 0 0.0 0.0 0.00 0.41 0.41 74 1017.3
20260503010203 4 0 0.0 0.0 0.00 0.41 0.41 73 1017.3
20260503010003 4 0 0.0 0.0 0.00 0.41 0.41 72 1017.2
20260503005903 4 0 0.0 0.0 0.00 0.41 0.41 72 1017.3
20260503005402 4 0 0.0 0.0 0.00 0.41 0.41 71 1017.0
20260503005203 4 0 0.0 0.0 0.00 0.41 0.41 70 1017.2
20260503004903 4 0 0.0 0.0 0.00 0.41 0.41 70 1017.0
20260503004824 4 0 0.0 0.0 0.00 0.41 0.41 70 1017.2
20260503004703 4 0 0.0 0.0 0.00 0.41 0.41 70 1017.1
20260503004603 4 0 0.0 0.0 0.00 0.41 0.41 70 1017.1
20260503004402 5 0 0.0 0.0 0.00 0.41 0.41 70 1017.2
20260503004303 5 0 0.0 0.0 0.00 0.41 0.41 69 1017.2
20260503004102 5 0 0.0 0.0 0.00 0.41 0.41 68 1017.1
20260503003902 5 0 0.0 0.0 0.00 0.41 0.41 67 1017.0
20260503003803 5 0 0.0 0.0 0.00 0.41 0.41 68 1017.1
20260503003603 5 0 0.0 0.0 0.00 0.41 0.41 67 1017.0
20260503003403 5 0 0.0 0.0 0.00 0.41 0.41 65 1017.2
20260503003124 5 0 0.0 0.0 0.00 0.41 0.41 64 1017.0
20260503003003 5 0 0.0 0.0 0.00 0.41 0.41 65 1017.0
20260503002903 5 0 0.0 0.0 0.00 0.41 0.41 64 1017.0
20260503002603 5 0 0.0 0.0 0.00 0.41 0.41 63 1016.9
20260503002403 5 0 0.0 0.0 0.00 0.41 0.41 64 1017.0
20260503002202 5 0 0.0 0.0 0.00 0.41 0.41 63 1017.2
20260503001824 5 0 0.0 0.0 0.00 0.41 0.41 64 1016.9
20260503001603 5 0 0.0 0.0 0.00 0.41 0.41 64 1016.9
20260503001403 5 0 0.0 0.0 0.00 0.41 0.41 64 1017.0
20260503001203 5 0 0.0 0.0 0.00 0.41 0.41 63 1017.0
20260503001103 5 0 0.0 0.0 0.00 0.41 0.41 63 1017.1
20260503000924 5 0 0.0 0.0 0.00 0.41 0.41 65 1017.0
20260503000703 5 0 0.0 0.0 0.00 0.41 0.41 65 1017.0
20260503000503 5 0 0.0 0.0 0.00 0.41 0.41 65 1017.0
20260503000403 5 0 0.0 0.0 0.00 0.41 0.41 64 1017.1
20260503000204 5 0 0.0 0.0 0.00 0.41 0.41 63 1017.1
20260502235924 5 94 0.0 1.6 0.00 0.41 0.41 63 1017.0
20260502235603 5 103 0.0 1.6 0.00 0.41 0.41 62 1016.8
20260502235402 5 103 0.0 1.6 0.00 0.41 0.41 60 1016.9
20260502235203 5 94 0.0 1.6 0.00 0.41 0.41 61 1016.9
20260502235103 5 89 0.0 1.6 0.00 0.41 0.41 61 1017.0
20260502234803 5 88 0.0 3.2 0.00 0.41 0.41 59 1017.0
20260502234602 5 88 1.6 4.8 0.00 0.41 0.41 62 1016.9
20260502234403 5 90 1.6 4.8 0.00 0.41 0.41 60 1016.7
20260502234202 5 93 1.6 4.8 0.00 0.41 0.41 59 1016.9
20260502234102 5 88 1.6 4.8 0.00 0.41 0.41 59 1016.8
20260502233903 5 94 1.6 4.8 0.00 0.41 0.41 61 1016.8